User: anonymous   Login
Location: Irma
(52.9170°N, 111.2330°W)
Time: 00:34:14
(UTC-06:00)
Language:

Cosmos 2279 Rocket - Orbit

View from above orbital plane
View from above orbital plane
View from above satellite
View from above satellite

Ground track
Ground track

The orbit data is extracted from the following two-line orbital elements,

1 23093U 94024B   17232.56928250 +.00000158 +00000-0 +14288-3 0  9998
2 23093 082.9440 066.6089 0010104 176.2530 183.8706 13.77737158640058
Epoch (UTC): 20 August 2017 13:39:46
Eccentricity: 0.0010104
inclination: 82.9440°
perigee height: 964 km
apogee height: 979 km
right ascension of ascending node: 66.6089°
argument of perigee: 176.2530°
revolutions per day: 13.77737158
mean anomaly at epoch: 183.8706°
orbit number at epoch: 64005

The dashed part of the orbit path shows where the satellite is in the earth's shadow,  

DLR